Location: *
(45.9500°N, 9.0833°E)
Time: 22:47:29
(UTC+00:00)

Vanguard 2 Rocket - Pass Details

Date: 15 June 2021
Orbit: 555 x 3325 km, 32.9° (Epoch: 02 August)

Event Time Altitude Azimuth Distance (km) Brightness Sun altitude
Rises 17:09:44 0° 198° (SSW) 7,272 11.5 19.0°
Reaches altitude 10° 17:16:44 10° 184° (S) 6,261 11.1 17.8°
Maximum altitude 17:29:04 21° 145° (SE) 5,025 10.3 15.8°
Drops below altitude 10° 17:39:25 10° 105° (ESE) 5,215 10.2 14.0°
Sets 17:44:19 0° 91° (E) 5,789 10.4 13.2°
